OBJECT D, 64051

Orbit data source: Space-Track

You're viewing an Uncataloged Satellite

Recently launched and/or uncataloged satellites may have evolving metadata. Metadata may include but not limited to: Owner, Maufacturer, Bus, Motor, and Mission.

OBJECT D, 64051 is a Chinese satellite in SSO that was launched on Sat, 17 May 2025 UTC via a ZHUQUE-2E launch vehicle from the Jiuquan Satellite Launch Center, China (JSC). Unknown objects in Earth's orbit typically refer to objects detected orbiting the Earth but have not yet been identified or cataloged. These objects could be anything from previously untracked satellites, spent rocket stages, debris from satellite collisions, or even natural meteoroids temporarily captured by Earth's gravity.

Loading next visibility...
Identifier
64051, 2025-103D
Orbit
SSO
Country
Flag of CNCN / PRC
Related business
Flag of CNZhangye Constellation Space Tech. Co. Ltd. (CN)
Manufacturer
Changsha Tianyi
Mission
Operational Commercial Radar Imaging
Bus & Motor
TY, Unknown motor
Mass
~300 kg wet, ~300 kg dry
Launch date (UTC)
2025-05-17 (1 year ago)
Launch vehicle
ZHUQUE-2E
Launch site
Jiuquan Satellite Launch Center, China (JSC)
Object type
Unknown
Shape & HBR
Box + 2 Pan, 0.5 m
Radar Cross Section
0.255 m², Large (>1 m²)

Expand to show TLE details & history
Last TLE update: 6 hours ago

TLE from 6 hours ago
0 OBJECT D
1 64051U 25103D   26150.19642395  .00005844  00000-0  28848-3 0  9994
2 64051  97.3834 221.8510 0000808 229.9815 130.1349 15.18262665 57277
Epoch: 2026-05-30T04:42Z
TLE epoch observation values (Epoch: 2026-05-30T04:42:51.029Z)
Latitude
0.00005°
Longitude
-96.57755°
Altitude
514.539 km
Speed
7.606 km/s
True Right ascension
14h 47m 24s
True Declination
0° 00' 00"
Sunlit
Object was in full shadow at epoch
Visualization orbit readout
Latitude
Unknown
Longitude
Unknown
Altitude
Unknown
Speed
Unknown
Apparent Right ascension
Unknown
Apparent Declination
Unknown
Sunlit
N/A
Visualization observer readout
Local Sidereal Time
19:47:03
Azimuth
Unknown
Elevation
Unknown
Doppler factor
Unknown
Orbital elements
Apogee altitude
508.615 km
Perigee altitude
507.502 km
Semi-major axis
6,886.195 km
Eccentricity
0.00008
Inclination
97.3834°
RAAN
221.851°
Arg. of periapsis
229.9815°
True anomaly
130.14198°
Mean anomaly
130.1349°
Eccentric anomaly
130.13844°
Mean motion
3.79817 °/min
Orbital period
94.78 mins
BSTAR
0.00028848
Loading maneuver chart data...
Computing Atmospheric mass density...
Loading historical data...
Loading historical data...
Loading historical data...
Loading historical data...
Loading historical data...
Loading historical data...
Loading historical data...

Documentation

Showing up to 5 results
|